Regional Weather Roundup
Issued by NWS Cleveland, OH

Home | Current Version | Previous Version | Text Only | Print | Product List | Glossary Off
Versions: 1 2 3 4 5 6 7 8 9 10 11 12 13 14 15 16 17 18 19 20 21 22 23 24 25 26 27 28 29 30 31 32 33 34 35 36 37 38 39 40 41 42 43 44 45 46 47 48 49 50

000
ASUS41 KCLE 281110
RWRCLE
OHIO REGIONAL WEATHER ROUNDUP
NATIONAL WEATHER SERVICE CLEVELAND, OH
700 AM EDT SAT MAR 28 2015

NOTE: "FAIR" INDICATES FEW OR NO CLOUDS BELOW 12,000 FEET WITH NO
SIGNIFICANT WEATHER AND/OR OBSTRUCTIONS TO VISIBILITY.

OHZ001>008-015>018-024>027-034-035-043-044-281200-
   NORTHWEST OHIO

CITY           SKY/WX    TMP DP  RH WIND       PRES   REMARKS
DEFIANCE       CLEAR     15   8  73 N6        30.23R WCI   6
FINDLAY        CLEAR     16   7  67 N6        30.19R WCI   7
TOLEDO EXPRESS CLEAR     15   7  70 NW5       30.21R WCI   8
TOLEDO EXEC    MOCLDY    18   5  57 N9        30.22R WCI   7
LIMA           CLEAR     18   7  62 N7        30.18R WCI   9
$$

OHZ009>014-019>023-028>033-038-089-281200-
   NORTHEAST OHIO

CITY           SKY/WX    TMP DP  RH WIND       PRES   REMARKS
CLE-HOPKINS    CLOUDY    18   8  65 N12       30.17R WCI   5
CLE-LAKEFRONT  CLOUDY    19   9  65 N16       30.15R WCI   4
CUY CO. ARPT   PTCLDY    18   9  68 N14G21    30.12  WCI   4
LORAIN-ELYRIA  CLOUDY    18   8  65 N9        30.16R WCI   7
ASHTABULA      CLEAR     14   6  70 N6        30.09R WCI   5
AKRON-CANTON   PTCLDY    12   5  73 NW6       30.09R WCI   3
WOOSTER        CLEAR     14   7  73 NW6       30.12R WCI   5
MANSFIELD      LGT SNOW  10   8  92 NW7       30.13R FOG     WCI  -1
YOUNGSTOWN     PTCLDY    12   6  77 NW6       30.06R WCI   3
$$

OHZ042-051>053-060>062-070>072-077>081-281200-
  SOUTHWEST OHIO

CITY           SKY/WX    TMP DP  RH WIND       PRES   REMARKS
CINC-COVINGTON CLEAR     20  14  77 N8        30.17R WCI  10
CINC-LUNKEN    CLEAR     21  14  74 N7        30.21R WCI  12
HAMILTON       CLEAR     19  14  81 N3        30.20R
DAYTON         PTCLDY    19  13  77 N5        30.17R WCI  12
WRIGHT-PAT AFB CLEAR     19  14  81 N5        30.18R WCI  12
DAYTON GENERAL CLEAR     18  14  84 N6        30.16R WCI  10
WILMINGTON     CLEAR     19  12  74 N8        30.15R WCI   9
$$

OHZ036-037-039>041-045>050-054>059-063>069-073>076-082>088-281200-
  CENTRAL AND SOUTHEAST OHIO

CITY           SKY/WX    TMP DP  RH WIND       PRES   REMARKS
COLUMBUS       PTCLDY    17   8  67 N8        30.17R WCI   7
OSU AIRPORT    CLEAR     16   7  67 N8        30.17R WCI   5
BOLTON FIELD   MOCLDY   N/A N/A N/A N9        30.17R
RICKENBACK AFB PTCLDY    19   7  61 N10G16    30.18R WCI   7
NEWARK         CLEAR     14   8  77 NW3       30.16R
MARION         CLEAR     14   7  73 NW7       30.17R WCI   4
LANCASTER      PTCLDY    20  12  71 N6        30.16R WCI  12
ZANESVILLE     CLEAR     14   6  70 NW5       30.14R WCI   6
NEW PHILLY     PTCLDY    17   5  59 NW7       30.13R WCI   8
$$



USA.gov is the U.S. government's official web portal to all federal, state and local government web resources and services.